[[{"header":{"parameterUnit":"m.s-1","parameterCategory":2,"la1":30.2991,"la2":30.254,"lo1":-89.0895,"lo2":-89.0444,"dy":0.0017,"dx":0.0017,"nx":28,"ny":28,"refTime":"2025-06-14T03:00:00:Z","depth":"0","parameterNumber":2,"parameterNumberName":"U-component_of_CURRENTS"},"data":[0,0,0,0,0,0,0,0,0,0,0,0,0,0,0,0,0,0,0,0,0,0,0,0,0,0,0,0,0,0,0,0,0,0,0,0,0,0,0,0,0,0,0,0,0,0,0,0,0,0,0,0,0,0,0,0,0,0,0.4071,0.4073,0,0.4175,0.4175,0.4175,0.4112,0.4109,0.4107,0.4105,0.4107,0.4109,0.4111,0,0,0,0,0,0,0,0,0,0,0,0,0,0.3845,0.3849,0.4071,0.4073,0.4075,0.4175,0.4175,0.4175,0.4112,0.4109,0.4107,0.4104,0.4106,0.4109,0.4111,0,0,0,0,0,0,0,0,0,0,0,0,0,0.3936,0.385,0.407,0.4063,0.4064,0.4174,0.4175,0.4176,0.4112,0.4109,0.4106,0.4103,0.4106,0.4109,0.4112,0.4194,0,0,0.4121,0.4122,0,0,0,0,0,0,0,0,0.3931,0.3943,0.4062,0.4064,0.4065,0.4135,0.4097,0.418,0.4113,0.4084,0.4105,0.4102,0.4116,0.4118,0.4132,0.4194,0.4194,0.4121,0.4123,0.4124,0.4125,0,0,0,0,0,0,0,0.3925,0.3939,0.4102,0.4065,0.4067,0.4064,0.4072,0.4112,0.4107,0.4086,0.4084,0.4112,0.4114,0.4129,0.4132,0.4194,0.4121,0.4124,0.4126,0.4127,0.4355,0.4359,0,0,0,0,0,0,0.3935,0.3933,0.4099,0.4106,0.4,0.4072,0.408,0.4108,0.4109,0.4109,0.4115,0.4109,0.4126,0.4128,0.4131,0.4273,0.4124,0.4127,0.4129,0.4351,0.4356,0.4361,0,0,0,0,0,0,0.3929,0.3949,0.4095,0.4029,0.4049,0.408,0.4111,0.4112,0.4129,0.4134,0.4129,0.4131,0.4123,0.4127,0.4197,0.427,0.4129,0.4131,0.4346,0.4353,0.4359,0.4528,0,0,0,0,0,0,0.3922,0.3946,0.3975,0.403,0.4053,0.4194,0.4115,0.4117,0.4156,0.4149,0.4148,0.4144,0.4121,0.4193,0.42,0.4272,0.4134,0.4341,0.4349,0.4357,0.4517,0.454,0.4559,0,0,0,0,0,0.3914,0.3974,0.3976,0.3997,0.409,0.4199,0.4212,0.4214,0.416,0.4206,0.4198,0.4144,0.4247,0.42,0.4207,0.4281,0.4337,0.4347,0.4356,0.4508,0.4535,0.4558,0,0,0,0,0,0,0.3893,0.3976,0.3978,0.4059,0.4139,0.4192,0.4241,0.4232,0.4262,0.4242,0.4208,0.4209,0.4302,0.4276,0.4224,0.4372,0.4281,0.4292,0.4394,0.442,0.444,0.4439,0.4136,0,0,0,0,0,0.3908,0.3969,0.4052,0.4121,0.4164,0.4201,0.4242,0.425,0.4287,0.4294,0.4296,0.4304,0.4353,0.4369,0.4408,0.4492,0.4514,0.4542,0.4563,0.458,0.4587,0.4687,0.4717,0.4392,0.4392,0.4392,0,0,0.3919,0.3976,0.4008,0.4122,0.4171,0.4258,0.4215,0.43,0.4364,0.4294,0.4374,0.4389,0.4397,0.4496,0.4532,0.4476,0.4702,0.4593,0.4607,0.4604,0.47,0.4732,0.476,0.4399,0.4398,0.4397,0,0,0.3975,0.4028,0.4092,0.417,0.4273,0.4315,0.4345,0.4419,0.4446,0.4545,0.451,0.4572,0.4632,0.4661,0.4678,0.484,0.4819,0.4846,0.4939,0.5038,0.5065,0.5089,0.5225,0.526,0.4843,0.4843,0.4843,0,0.3977,0.4078,0.4135,0.4223,0.43,0.4342,0.4437,0.4494,0.4578,0.4626,0.4591,0.471,0.4717,0.483,0.4885,0.4888,0.4946,0.4841,0.5065,0.5089,0.511,0.5243,0.5279,0.4852,0.4851,0.485,0.4849,0,0.4081,0.4167,0.4225,0.4343,0.4435,0.4538,0.4633,0.4717,0.4748,0.479,0.4918,0.4941,0.4999,0.5026,0.5005,0.5163,0.5162,0.5092,0.4998,0.5153,0.5284,0.5318,0.4866,0.4862,0.486,0.4857,0,0,0.4076,0.4255,0.4275,0.4352,0.4511,0.4596,0.4741,0.4888,0.4969,0.5044,0.5161,0.5245,0.5231,0.525,0.5238,0.5315,0.5544,0.5272,0.5272,0.5402,0.581,0.5712,0.5739,0.5509,0.5515,0.5519,0.5864,0,0.4142,0.4301,0.4389,0.456,0.4663,0.4773,0.4899,0.5027,0.5127,0.5253,0.5299,0.5398,0.5322,0.5363,0.5435,0.5514,0.5631,0.5459,0.5643,0.5649,0.5537,0.5773,0.5512,0.5787,0.5897,0.5902,0.5906,0,0.4227,0.4324,0.4484,0.4678,0.4732,0.4828,0.5046,0.5163,0.5344,0.5423,0.5519,0.5557,0.5699,0.5601,0.5817,0.5712,0.5788,0.5836,0.5849,0.5709,0.5612,0.5637,0.5843,0.5678,0.5958,0.5954,0.595,0,0.4214,0.4407,0.4531,0.46,0.4808,0.4901,0.5008,0.5198,0.5316,0.5524,0.5628,0.5768,0.5859,0.5965,0.6051,0.5969,0.6291,0.6185,0.6185,0.618,0.5967,0.5932,0.6016,0.6372,0.6371,0.637,0.6369,0,0.4289,0.4399,0.4519,0.4595,0.4749,0.4881,0.5054,0.5198,0.5386,0.5547,0.5675,0.5826,0.5952,0.6125,0.6176,0.6304,0.6402,0.6269,0.6275,0.6025,0.5993,0.5836,0.578,0.6383,0.6381,0.6378,0.6376,0,0.4336,0.4399,0.4549,0.471,0.4756,0.4867,0.5066,0.52,0.5363,0.5589,0.5668,0.593,0.6166,0.6291,0.6517,0.6466,0.6424,0.6611,0.6329,0.6292,0.6057,0.602,0.5933,0.5762,0.6688,0.6688,0.6687,0,0.4431,0.4492,0.4603,0.4667,0.4751,0.4893,0.5008,0.5182,0.5327,0.5647,0.5772,0.6061,0.6245,0.6536,0.6543,0.6673,0.6474,0.6495,0.626,0.6071,0.6038,0.5789,0.5632,0.6099,0.6094,0.609,0.6087,0,0.4627,0.4605,0.4688,0.4752,0.4854,0.4976,0.5132,0.5216,0.5448,0.5605,0.5847,0.6005,0.628,0.6292,0.6446,0.6464,0.6162,0.6412,0.6287,0.5664,0.5332,0.5156,0.5885,0.6051,0.6054,0.6057,0.6059,0.606,0.477,0.4803,0.482,0.4886,0.4967,0.5037,0.508,0.5227,0.5371,0.5535,0.578,0.5881,0.602,0.6171,0.6167,0.5952,0.594,0.5758,0.5773,0.5571,0.5241,0.591,0.6004,0.6007,0.601,0.6012,0.6014,0,0.4927,0.4906,0.4973,0.4984,0.5017,0.5052,0.5158,0.5133,0.5199,0.5369,0.5491,0.5536,0.5575,0.5631,0.5539,0.5333,0.5054,0.5203,0.4794,0.4703,0.5382,0.5182,0.5011,0.5011,0.5011,0.5011,0.5011,0.5012,0.5022,0.5038,0.4991,0.5016,0.5007,0.4966,0.4969,0.491,0.4943,0.488,0.4838,0.4917,0.5111,0.5241,0.5038,0.49,0.452,0.4327,0.4349,0.4832,0.4881,0.4928,0.4724,0.446,0.4459,0.3395,0.3388,0.3382]},{"header":{"parameterUnit":"m.s-1","parameterCategory":2,"la1":30.2991,"la2":30.254,"lo1":-89.0895,"lo2":-89.0444,"dy":0.0017,"dx":0.0017,"nx":28,"ny":28,"refTime":"2025-06-14T03:00:00:Z","depth":"0","parameterNumber":3,"parameterNumberName":"V-component_of_CURRENTS"},"data":[0,0,0,0,0,0,0,0,0,0,0,0,0,0,0,0,0,0,0,0,0,0,0,0,0,0,0,0,0,0,0,0,0,0,0,0,0,0,0,0,0,0,0,0,0,0,0,0,0,0,0,0,0,0,0,0,0,0,-0.0101,-0.0102,0,-0.0184,-0.0185,-0.0186,-0.0232,-0.0232,-0.0232,-0.0232,-0.0351,-0.0354,-0.0357,0,0,0,0,0,0,0,0,0,0,0,0,0,-0.0056,-0.0056,-0.0101,-0.0102,-0.0102,-0.0184,-0.0185,-0.0186,-0.0232,-0.0232,-0.0232,-0.0232,-0.035,-0.0353,-0.0357,0,0,0,0,0,0,0,0,0,0,0,0,0,-0.0102,-0.0056,-0.0101,-0.0134,-0.0138,-0.0183,-0.0185,-0.0186,-0.0232,-0.0232,-0.0232,-0.0232,-0.0348,-0.0353,-0.0358,-0.0388,0,0,-0.0372,-0.0374,0,0,0,0,0,0,0,0,-0.0099,-0.0104,-0.0128,-0.0132,-0.0136,-0.0196,-0.0213,-0.0255,-0.0232,-0.0198,-0.0232,-0.0232,-0.0301,-0.031,-0.0327,-0.0393,-0.0398,-0.0373,-0.0376,-0.0378,-0.0379,0,0,0,0,0,0,0,-0.0096,-0.0101,-0.0135,-0.0129,-0.0134,-0.017,-0.0176,-0.0221,-0.0251,-0.0201,-0.0204,-0.0211,-0.0304,-0.0323,-0.0331,-0.04,-0.0373,-0.0377,-0.038,-0.0382,-0.0503,-0.0503,0,0,0,0,0,0,-0.0079,-0.0098,-0.0133,-0.0138,-0.0115,-0.017,-0.0177,-0.0178,-0.025,-0.026,-0.021,-0.0212,-0.0315,-0.0325,-0.0335,-0.0361,-0.0378,-0.0382,-0.0385,-0.0502,-0.0503,-0.0503,0,0,0,0,0,0,-0.0077,-0.0081,-0.0129,-0.0119,-0.0127,-0.017,-0.0172,-0.018,-0.0196,-0.0256,-0.0267,-0.0217,-0.0315,-0.0328,-0.0372,-0.0367,-0.0384,-0.0389,-0.0502,-0.0502,-0.0503,-0.0423,0,0,0,0,0,0,-0.0076,-0.008,-0.0075,-0.0117,-0.0127,-0.015,-0.0172,-0.0181,-0.0199,-0.0203,-0.0266,-0.0277,-0.0316,-0.0365,-0.0377,-0.0374,-0.0392,-0.0501,-0.0502,-0.0503,-0.0425,-0.042,-0.0417,0,0,0,0,0,-0.0074,-0.0059,-0.0074,-0.0078,-0.0119,-0.015,-0.0158,-0.0191,-0.0199,-0.0205,-0.0248,-0.0275,-0.0378,-0.0369,-0.0383,-0.0381,-0.0501,-0.0502,-0.0503,-0.0427,-0.0421,-0.0417,0,0,0,0,0,0,-0.0034,-0.0063,-0.0081,-0.0075,-0.011,-0.0157,-0.0159,-0.0186,-0.0224,-0.0222,-0.0281,-0.0296,-0.0334,-0.0372,-0.0361,-0.042,-0.0444,-0.0447,-0.0381,-0.0377,-0.0372,-0.0319,-0.0396,0,0,0,0,0,-0.0024,-0.0023,-0.0063,-0.0061,-0.007,-0.0115,-0.0131,-0.0153,-0.0192,-0.0208,-0.0256,-0.0305,-0.035,-0.0372,-0.0421,-0.0451,-0.0437,-0.0461,-0.0456,-0.0452,-0.042,-0.041,-0.0401,-0.0506,-0.0506,-0.0506,0,0,-0.001,-0.0025,-0.0025,-0.0053,-0.0077,-0.0079,-0.0124,-0.0138,-0.0143,-0.0216,-0.0237,-0.0295,-0.0357,-0.0392,-0.0412,-0.042,-0.0412,-0.0453,-0.0449,-0.0418,-0.041,-0.0399,-0.039,-0.0506,-0.0506,-0.0506,0,0,0.0033,0.001,0.0031,0.0009,-0.0018,-0.0049,-0.0049,-0.0096,-0.0119,-0.0155,-0.0205,-0.0251,-0.0327,-0.0362,-0.0391,-0.0394,-0.0394,-0.0419,-0.0349,-0.034,-0.033,-0.0322,-0.0262,-0.0249,-0.0412,-0.0412,-0.0412,0,0.0053,0.0075,0.0029,0.0045,0.0042,-0.0028,-0.0004,-0.0043,-0.0102,-0.0105,-0.015,-0.0238,-0.0307,-0.0324,-0.0334,-0.038,-0.0355,-0.036,-0.033,-0.0321,-0.0313,-0.0255,-0.0241,-0.0408,-0.0408,-0.0409,-0.0409,0,0.0114,0.0127,0.0139,0.0137,0.0121,0.0127,0.0076,0.0057,0.0014,-0.0023,-0.0059,-0.0154,-0.0197,-0.0241,-0.0294,-0.0278,-0.0268,-0.0326,-0.033,-0.0297,-0.0239,-0.0226,-0.0403,-0.0404,-0.0405,-0.0406,0,0,0.0176,0.0184,0.019,0.0214,0.0175,0.0179,0.0169,0.0153,0.0176,0.0086,0.0116,-0.0007,-0.0054,-0.0089,-0.0165,-0.0171,-0.0115,-0.0217,-0.0218,-0.0133,-0.0041,-0.0054,-0.0041,-0.0162,-0.016,-0.0159,-0.0011,0,0.0242,0.031,0.0283,0.0337,0.0368,0.0311,0.0314,0.0287,0.0245,0.025,0.0154,0.0142,0.0001,-0.0003,-0.0044,-0.0094,-0.008,-0.0146,-0.0107,-0.0104,-0.01,-0.0027,-0.0058,0.0068,0.0002,0.0004,0.0005,0,0.0318,0.0356,0.0433,0.0463,0.0473,0.0491,0.0514,0.0505,0.0477,0.0451,0.0408,0.0337,0.0301,0.0181,0.0128,0.0098,0.0044,0.0001,0.0004,-0.0021,-0.0093,0.0015,0.0094,-0.0184,0.0025,0.0024,0.0022,0,0.041,0.0461,0.0535,0.0543,0.0561,0.0595,0.0601,0.0582,0.0608,0.0605,0.0651,0.0551,0.057,0.0448,0.0321,0.0241,0.0305,0.0175,0.0128,0.0128,0.0105,0.0099,-0.006,0.0173,0.0173,0.0172,0.0172,0,0.0496,0.0551,0.0596,0.0636,0.0732,0.0707,0.0793,0.0784,0.0809,0.09,0.0774,0.0862,0.0643,0.0626,0.0445,0.0361,0.0401,0.0187,0.017,0.0131,0.0126,-0.0118,-0.0288,0.0178,0.0177,0.0176,0.0175,0,0.0578,0.0602,0.0692,0.0752,0.0779,0.0852,0.0921,0.0982,0.1005,0.1136,0.1161,0.1147,0.1144,0.0941,0.0818,0.0585,0.0309,0.0427,0.0424,0.0401,0.0012,-0.015,-0.0278,-0.0417,0.0374,0.0375,0.0375,0,0.0628,0.0688,0.0788,0.0854,0.0888,0.0984,0.1047,0.1074,0.116,0.1335,0.143,0.1492,0.1575,0.1387,0.101,0.0748,0.044,0.0502,0.0297,0.0029,-0.0165,-0.03,-0.0419,0.0318,0.0318,0.0318,0.0318,0,0.0723,0.0757,0.0829,0.096,0.1055,0.1161,0.1273,0.1381,0.1472,0.1645,0.19,0.201,0.1848,0.1592,0.1194,0.0938,0.0252,0.0492,0.0205,-0.0214,-0.0358,-0.0511,0.0212,0.0318,0.0318,0.0318,0.0318,0.0318,0.0795,0.0859,0.0951,0.1066,0.118,0.1336,0.1467,0.1638,0.1864,0.2184,0.2262,0.2524,0.2069,0.1532,0.1124,0.0314,0.0298,0.0021,-0.0137,-0.0234,-0.044,0.0309,0.0377,0.0378,0.0378,0.0378,0.0379,0,0.0891,0.0941,0.1047,0.1193,0.1325,0.137,0.1609,0.1788,0.2127,0.2477,0.2754,0.2726,0.2108,0.1419,0.0349,-0.0222,-0.0491,-0.0545,-0.0784,-0.0867,-0.0192,-0.0275,-0.0335,-0.0335,-0.0335,-0.0334,-0.0334,-0.0334,0.0952,0.1045,0.1071,0.1278,0.1392,0.1616,0.1778,0.2095,0.2394,0.2868,0.3101,0.3239,0.2699,0.077,-0.0545,-0.0853,-0.1314,-0.138,-0.1579,-0.1185,-0.1147,-0.111,-0.123,-0.1489,-0.1491,-0.222,-0.2227,-0.2233]}],[{"header":{"parameterUnit":"m.s-1","parameterCategory":2,"la1":30.2991,"la2":30.254,"lo1":-89.0895,"lo2":-89.0444,"dy":0.0017,"dx":0.0017,"nx":28,"ny":28,"refTime":"2025-06-14T03:00:00:Z","depth":"2","parameterNumber":2,"parameterNumberName":"U-component_of_CURRENTS"},"data":[0,0,0,0,0,0,0,0,0,0,0,0,0,0,0,0,0,0,0,0,0,0,0,0,0,0,0,0,0,0,0,0,0,0,0,0,0,0,0,0,0,0,0,0,0,0,0,0,0,0,0,0,0,0,0,0,0,0,0.3041,0.3041,0,0.309,0.309,0.3091,0.309,0.309,0.3089,0.3088,0.3126,0.3128,0.3129,0,0,0,0,0,0,0,0,0,0,0,0,0,0.292,0.2922,0.3041,0.3041,0.3042,0.309,0.3091,0.3091,0.3091,0.309,0.3089,0.3088,0.3126,0.3128,0.313,0,0,0,0,0,0,0,0,0,0,0,0,0,0.2972,0.2923,0.3041,0.3046,0.3047,0.309,0.3091,0.3092,0.3091,0.309,0.3089,0.3088,0.3125,0.3127,0.313,0.3168,0,0,0.3138,0.3139,0,0,0,0,0,0,0,0,0.2969,0.2977,0.3045,0.3046,0.3047,0.3082,0.3062,0.3116,0.3091,0.3075,0.3088,0.3087,0.3111,0.3114,0.3127,0.317,0.3171,0.3138,0.3139,0.3141,0.3141,0,0,0,0,0,0,0,0.2966,0.2974,0.3061,0.3046,0.3047,0.3037,0.3044,0.3072,0.3099,0.3077,0.3076,0.3081,0.3111,0.3125,0.3128,0.3172,0.3138,0.314,0.3142,0.3143,0.3342,0.3345,0,0,0,0,0,0,0.2961,0.2972,0.306,0.3063,0.3004,0.3041,0.3048,0.3073,0.3099,0.3102,0.3082,0.3081,0.3121,0.3125,0.313,0.3253,0.3141,0.3143,0.3144,0.3338,0.3343,0.3347,0,0,0,0,0,0,0.2958,0.2969,0.3058,0.3016,0.3026,0.3044,0.3072,0.3074,0.3114,0.3103,0.3105,0.3121,0.3121,0.3126,0.3169,0.3251,0.3144,0.3146,0.3334,0.3339,0.3345,0.3451,0,0,0,0,0,0,0.2955,0.2969,0.3001,0.3016,0.3028,0.3117,0.3073,0.3076,0.3116,0.3116,0.3137,0.3138,0.312,0.3165,0.3172,0.3253,0.3148,0.3329,0.3336,0.3343,0.3443,0.3459,0.3474,0,0,0,0,0,0.2951,0.2987,0.3002,0.3013,0.3067,0.312,0.3127,0.3134,0.3119,0.3161,0.3155,0.3139,0.3216,0.317,0.3176,0.326,0.3325,0.3334,0.3342,0.3436,0.3456,0.3473,0,0,0,0,0,0,0.2952,0.2991,0.3008,0.3056,0.3104,0.312,0.3147,0.3159,0.319,0.3188,0.3168,0.317,0.3251,0.3241,0.319,0.3343,0.3277,0.3288,0.3346,0.3366,0.3381,0.341,0.315,0,0,0,0,0,0.2969,0.3009,0.3051,0.3096,0.3117,0.3144,0.3168,0.3187,0.3205,0.3219,0.3229,0.325,0.3292,0.3311,0.3345,0.3413,0.3433,0.348,0.3496,0.3509,0.3541,0.3622,0.3648,0.3374,0.3374,0.3374,0,0,0.2982,0.3008,0.3032,0.31,0.3126,0.3176,0.3157,0.3213,0.3267,0.3219,0.3289,0.3309,0.3324,0.3403,0.3441,0.3402,0.3601,0.352,0.353,0.3555,0.3634,0.366,0.3684,0.338,0.3379,0.3378,0,0,0.3022,0.3053,0.3103,0.3146,0.3207,0.3221,0.3248,0.3297,0.3334,0.3413,0.3393,0.3456,0.3514,0.354,0.3559,0.3687,0.3686,0.3711,0.3807,0.3886,0.3909,0.3929,0.3998,0.4023,0.3712,0.3712,0.3712,0,0.304,0.3105,0.3129,0.3188,0.3224,0.3245,0.3313,0.3356,0.3419,0.3475,0.3457,0.3595,0.3589,0.3699,0.3732,0.3725,0.3763,0.3725,0.3905,0.3926,0.3944,0.401,0.4036,0.3718,0.3718,0.3717,0.3716,0,0.3116,0.3174,0.3202,0.3277,0.333,0.3387,0.3445,0.3519,0.3563,0.3613,0.3759,0.3773,0.3854,0.3875,0.3835,0.3982,0.3965,0.3916,0.385,0.3978,0.4039,0.4065,0.3727,0.3725,0.3723,0.3722,0,0,0.3134,0.3237,0.3249,0.3294,0.3383,0.3424,0.3539,0.3652,0.3716,0.3834,0.3931,0.4045,0.4068,0.4093,0.4079,0.4142,0.4285,0.4088,0.409,0.4146,0.4471,0.4304,0.4316,0.4266,0.4271,0.4275,0.4462,0,0.3189,0.3296,0.3344,0.344,0.3493,0.3564,0.3646,0.3759,0.3844,0.393,0.4039,0.4114,0.4144,0.4165,0.4258,0.427,0.4359,0.424,0.435,0.4354,0.418,0.4342,0.4025,0.4151,0.4486,0.4491,0.4494,0,0.3245,0.3307,0.3414,0.3512,0.3542,0.3598,0.3734,0.3821,0.3966,0.4055,0.4211,0.4233,0.439,0.4333,0.4561,0.4487,0.4509,0.4521,0.4527,0.4355,0.4235,0.4078,0.4184,0.4536,0.4533,0.453,0.4527,0,0.3226,0.3348,0.3425,0.3461,0.3579,0.3651,0.3718,0.3866,0.3956,0.4117,0.42,0.4385,0.4498,0.4586,0.4655,0.4614,0.4841,0.4772,0.467,0.4658,0.4402,0.4357,0.4923,0.4923,0.4923,0.4922,0.4922,0,0.3257,0.3323,0.3411,0.3449,0.3538,0.3629,0.373,0.3858,0.3995,0.41,0.4248,0.4377,0.4571,0.4695,0.471,0.4802,0.4922,0.4739,0.4713,0.4428,0.4386,0.4716,0.469,0.4929,0.4928,0.4926,0.4925,0,0.3253,0.3317,0.3387,0.3489,0.353,0.3591,0.3731,0.3793,0.3972,0.4111,0.4167,0.4451,0.4657,0.4775,0.4931,0.4901,0.4932,0.491,0.456,0.4488,0.4686,0.4664,0.4853,0.4849,0.4846,0.4843,0.4841,0,0.3263,0.331,0.3382,0.3416,0.3469,0.3561,0.3616,0.3784,0.3855,0.4147,0.42,0.4466,0.4607,0.4815,0.4806,0.4834,0.4914,0.4518,0.4369,0.4733,0.4689,0.4672,0.4654,0.4093,0.4085,0.4078,0.4072,0,0.3286,0.33,0.3341,0.3376,0.3427,0.3477,0.3567,0.3643,0.3834,0.3946,0.4139,0.4258,0.4517,0.4456,0.4514,0.4464,0.4479,0.4377,0.4899,0.4126,0.4022,0.3975,0.3983,0.4012,0.4018,0.4023,0.4026,0.4028,0.3267,0.3281,0.3287,0.331,0.3368,0.3376,0.3373,0.3476,0.3558,0.3704,0.392,0.3999,0.414,0.4084,0.3963,0.389,0.4184,0.3999,0.4019,0.4047,0.3892,0.3783,0.3702,0.3706,0.371,0.3713,0.3716,0,0.3156,0.319,0.3225,0.3217,0.3197,0.3266,0.3303,0.3249,0.3282,0.3472,0.3556,0.3342,0.3356,0.3477,0.3287,0.3264,0.3219,0.3125,0.3061,0.3127,0.3184,0.298,0.2552,0.2547,0.2543,0.2539,0,0,0.311,0.3052,0.3045,0.2985,0.3032,0.2922,0.2915,0.2905,0.2954,0.2936,0.2958,0.3234,0.3406,0.2936,0.2884,0.2694,0.2876,0.2586,0.354,0.3535,0.3585,0.3728,0.3495,0,0,0,0,0]},{"header":{"parameterUnit":"m.s-1","parameterCategory":2,"la1":30.2991,"la2":30.254,"lo1":-89.0895,"lo2":-89.0444,"dy":0.0017,"dx":0.0017,"nx":28,"ny":28,"refTime":"2025-06-14T03:00:00:Z","depth":"2","parameterNumber":3,"parameterNumberName":"V-component_of_CURRENTS"},"data":[0,0,0,0,0,0,0,0,0,0,0,0,0,0,0,0,0,0,0,0,0,0,0,0,0,0,0,0,0,0,0,0,0,0,0,0,0,0,0,0,0,0,0,0,0,0,0,0,0,0,0,0,0,0,0,0,0,0,0.0034,0.0033,0,-0.002,-0.0021,-0.0021,-0.0073,-0.0074,-0.0074,-0.0075,-0.0165,-0.0167,-0.0169,0,0,0,0,0,0,0,0,0,0,0,0,0,0.003,0.0031,0.0034,0.0033,0.0033,-0.002,-0.0021,-0.0022,-0.0073,-0.0074,-0.0074,-0.0075,-0.0164,-0.0167,-0.0169,0,0,0,0,0,0,0,0,0,0,0,0,0,0.0008,0.0031,0.0034,0.0002,-0.0001,-0.002,-0.0021,-0.0022,-0.0073,-0.0074,-0.0075,-0.0075,-0.0163,-0.0166,-0.0169,-0.0173,0,0,-0.0178,-0.018,0,0,0,0,0,0,0,0,0.0009,0.0008,0.0007,0.0004,0.0001,-0.0039,-0.0055,-0.0074,-0.0073,-0.0048,-0.0075,-0.0076,-0.0124,-0.013,-0.0142,-0.0178,-0.0181,-0.0179,-0.018,-0.0182,-0.0182,0,0,0,0,0,0,0,0.0011,0.0009,0.001,0.0007,0.0003,-0.003,-0.0034,-0.0059,-0.0084,-0.005,-0.0054,-0.0056,-0.0127,-0.0138,-0.0144,-0.0183,-0.0178,-0.0181,-0.0183,-0.0184,-0.0246,-0.0246,0,0,0,0,0,0,0.0026,0.0011,0.0012,0.0009,0.0006,-0.0029,-0.0033,-0.0027,-0.0083,-0.0091,-0.0055,-0.0058,-0.0133,-0.0141,-0.0147,-0.0145,-0.0182,-0.0184,-0.0186,-0.0246,-0.0246,-0.0246,0,0,0,0,0,0,0.0026,0.0027,0.0014,0.001,0.0006,-0.0027,-0.0021,-0.0028,-0.0041,-0.0086,-0.0095,-0.0061,-0.0134,-0.0143,-0.0161,-0.015,-0.0186,-0.0188,-0.0246,-0.0246,-0.0246,-0.0148,0,0,0,0,0,0,0.0027,0.0028,0.0035,0.0011,0.0007,0.0016,-0.002,-0.0028,-0.004,-0.0044,-0.0094,-0.0103,-0.0135,-0.0156,-0.0164,-0.0154,-0.0191,-0.0247,-0.0246,-0.0246,-0.0151,-0.0144,-0.0138,0,0,0,0,0,0.0027,0.0056,0.0035,0.0035,0.0019,0.0017,0.0012,-0.0017,-0.0039,-0.0034,-0.0069,-0.0101,-0.0161,-0.0158,-0.0167,-0.0158,-0.0247,-0.0246,-0.0246,-0.0154,-0.0146,-0.0138,0,0,0,0,0,0,0.0064,0.0053,0.003,0.0054,0.0037,0.0009,0.0015,-0.0011,-0.0036,-0.0042,-0.0092,-0.0102,-0.0119,-0.0153,-0.0148,-0.0179,-0.0213,-0.0214,-0.014,-0.0132,-0.0126,-0.0093,-0.0193,0,0,0,0,0,0.0073,0.0086,0.0065,0.0081,0.0078,0.0042,0.0036,0.0015,-0.0008,-0.002,-0.0055,-0.0095,-0.0125,-0.0138,-0.0171,-0.0178,-0.021,-0.0184,-0.0177,-0.0171,-0.0153,-0.019,-0.0184,-0.0245,-0.0245,-0.0245,0,0,0.0089,0.0086,0.0091,0.0088,0.0071,0.0091,0.0037,0.0037,0.0049,-0.0025,-0.0021,-0.0073,-0.0124,-0.0134,-0.0145,-0.0159,-0.0172,-0.0171,-0.0165,-0.015,-0.0189,-0.0183,-0.0177,-0.0245,-0.0245,-0.0245,0,0,0.0143,0.0127,0.0159,0.0156,0.0143,0.0125,0.0129,0.0102,0.0085,0.0074,0.0024,-0.0013,-0.006,-0.0086,-0.0108,-0.0087,-0.014,-0.011,-0.0044,-0.008,-0.0075,-0.007,-0.0101,-0.01,-0.0103,-0.0103,-0.0102,0,0.0161,0.0201,0.0167,0.0201,0.0211,0.0149,0.019,0.0169,0.0137,0.0131,0.0088,0.0013,-0.0033,-0.0041,-0.0037,-0.0069,-0.0099,-0.0064,-0.0069,-0.0065,-0.0062,-0.0095,-0.0095,-0.0098,-0.0098,-0.0099,-0.0099,0,0.0243,0.027,0.0293,0.0315,0.0318,0.0342,0.0314,0.0304,0.0262,0.0235,0.02,0.0123,0.0085,0.0051,0.0015,0.0012,-0.0019,-0.0057,-0.008,-0.005,-0.0087,-0.0089,-0.0091,-0.0093,-0.0094,-0.0095,0,0,0.03,0.0343,0.0352,0.0383,0.0382,0.04,0.0414,0.0415,0.0436,0.0358,0.0373,0.0287,0.0229,0.02,0.0133,0.0094,0.0081,0.0036,0.0032,0.0022,0.0006,-0.0052,-0.006,0.0041,0.0041,0.0041,-0.0027,0,0.0374,0.0469,0.0464,0.0546,0.0591,0.0549,0.0573,0.0559,0.0526,0.0524,0.0417,0.0398,0.0292,0.027,0.0216,0.0121,0.008,0.0103,-0.0035,-0.0039,-0.0081,-0.0063,-0.0025,-0.0086,-0.0029,-0.003,-0.003,0,0.0459,0.0514,0.0609,0.0668,0.0684,0.0716,0.0745,0.0764,0.0733,0.0704,0.0647,0.0563,0.0496,0.0396,0.0245,0.0263,0.0152,0.006,0.0055,-0.0031,-0.01,-0.011,-0.0093,-0.0034,-0.0034,-0.0034,-0.0033,0,0.0525,0.0615,0.0697,0.0719,0.0771,0.0797,0.0822,0.0816,0.0856,0.0827,0.0836,0.072,0.0686,0.0513,0.0307,0.0283,0.0135,0.0079,-0.0082,-0.0087,-0.0097,-0.0104,-0.0022,-0.0022,-0.0022,-0.0022,-0.0021,0,0.0609,0.0676,0.0736,0.0783,0.0883,0.0885,0.0979,0.0977,0.1005,0.1084,0.0942,0.0964,0.0715,0.0587,0.0371,0.0143,0.0182,-0.0059,-0.0106,-0.0064,-0.0067,-0.0059,-0.0062,-0.0024,-0.0024,-0.0023,-0.0023,0,0.0663,0.0704,0.0805,0.0883,0.0917,0.0988,0.1096,0.1167,0.1168,0.1266,0.1263,0.1169,0.1005,0.0726,0.0474,0.0255,0.0019,-0.0073,-0.0009,-0.0048,-0.0195,-0.0192,-0.025,-0.0253,-0.0255,-0.0257,-0.0258,0,0.0701,0.0752,0.0878,0.0953,0.0992,0.1104,0.1187,0.1242,0.1332,0.14,0.1457,0.1337,0.1269,0.085,0.0453,0.0064,0.0017,-0.0162,-0.0213,-0.0177,-0.0217,-0.0211,-0.0206,-0.0185,-0.0186,-0.0187,-0.0187,0,0.0753,0.0786,0.0872,0.103,0.1138,0.1293,0.1418,0.1519,0.1607,0.1683,0.1769,0.172,0.1332,0.0955,0.041,0.0143,-0.0108,-0.0189,-0.015,-0.0142,-0.0124,-0.016,-0.0156,-0.0193,-0.0192,-0.0192,-0.0192,-0.0191,0.0787,0.0847,0.0955,0.1111,0.1256,0.1459,0.1607,0.1751,0.1924,0.2049,0.1989,0.1915,0.1483,0.0785,0.0329,-0.0148,-0.0136,-0.031,-0.0304,-0.0298,-0.0287,-0.0275,-0.0369,-0.037,-0.037,-0.0371,-0.0371,0,0.0832,0.0894,0.1031,0.1237,0.1422,0.1495,0.1747,0.1896,0.2122,0.219,0.2229,0.1795,0.1357,0.086,0.0152,-0.0282,-0.0301,-0.0415,-0.0333,-0.0325,-0.0318,-0.0306,-0.0395,-0.0396,-0.0397,-0.0398,0,0,0.0858,0.0979,0.1051,0.1341,0.1497,0.1768,0.1933,0.2137,0.2245,0.2309,0.225,0.2098,0.1497,0.0982,0.0405,0.0014,-0.0057,-0.007,-0.0007,0.0165,0.0177,-0.022,-0.0187,0,0,0,0,0]}],[{"header":{"parameterUnit":"m.s-1","parameterCategory":2,"la1":30.2991,"la2":30.254,"lo1":-89.0895,"lo2":-89.0444,"dy":0.0017,"dx":0.0017,"nx":28,"ny":28,"refTime":"2025-06-14T03:00:00:Z","depth":"4","parameterNumber":2,"parameterNumberName":"U-component_of_CURRENTS"},"data":[0,0,0,0,0,0,0,0,0,0,0,0,0,0,0,0,0,0,0,0,0,0,0,0,0,0,0,0,0,0,0,0,0,0,0,0,0,0,0,0,0,0,0,0,0,0,0,0,0,0,0,0,0,0,0,0,0,0,0.1762,0.1763,0,0.1827,0.1827,0.1827,0.1907,0.1909,0.1911,0.1913,0.1994,0.1995,0.1995,0,0,0,0,0,0,0,0,0,0,0,0,0,0.1669,0.167,0.1762,0.1763,0.1765,0.1827,0.1827,0.1827,0.1907,0.1909,0.1911,0.1913,0.1994,0.1995,0.1995,0,0,0,0,0,0,0,0,0,0,0,0,0,0.1714,0.1671,0.1762,0.1816,0.1822,0.1827,0.1827,0.1828,0.1907,0.1909,0.1912,0.1914,0.1994,0.1995,0.1995,0.1948,0,0,0.1998,0.1998,0,0,0,0,0,0,0,0,0.1712,0.1717,0.1807,0.1812,0.1819,0.1866,0.1825,0.1871,0.1906,0.1869,0.1913,0.1916,0.1954,0.1959,0.1957,0.1952,0.1956,0.1998,0.1999,0.1999,0.1999,0,0,0,0,0,0,0,0.1709,0.1715,0.1783,0.1808,0.1815,0.1824,0.1833,0.1833,0.1893,0.1872,0.188,0.1894,0.1958,0.1956,0.196,0.1957,0.1998,0.1999,0.1999,0.2,0.2108,0.211,0,0,0,0,0,0,0.171,0.1712,0.1781,0.1785,0.1776,0.1824,0.1834,0.1844,0.1893,0.1904,0.1892,0.1898,0.1954,0.1959,0.1963,0.2068,0.1999,0.2,0.2,0.2105,0.2108,0.2111,0,0,0,0,0,0,0.1708,0.1715,0.1778,0.1754,0.1764,0.1823,0.1834,0.1844,0.1886,0.1908,0.1919,0.193,0.1956,0.1962,0.2019,0.2066,0.2,0.2001,0.2103,0.2106,0.211,0.2176,0,0,0,0,0,0,0.1705,0.1714,0.1734,0.1754,0.1765,0.1805,0.1832,0.1844,0.1891,0.19,0.1943,0.1951,0.1958,0.2018,0.202,0.2066,0.2002,0.21,0.2104,0.2108,0.2171,0.2182,0.2191,0,0,0,0,0,0.1701,0.1708,0.1734,0.1744,0.1787,0.1806,0.1812,0.1859,0.1891,0.1906,0.1957,0.1952,0.2049,0.202,0.2022,0.2069,0.2097,0.2103,0.2108,0.2167,0.2179,0.219,0,0,0,0,0,0,0.1678,0.1718,0.1747,0.1768,0.1801,0.1822,0.1845,0.1874,0.1921,0.195,0.1969,0.198,0.2052,0.2048,0.2016,0.2117,0.2076,0.2082,0.212,0.2132,0.2142,0.2154,0.2002,0,0,0,0,0,0.1682,0.1704,0.1739,0.1762,0.178,0.1818,0.1839,0.1875,0.1913,0.1939,0.1973,0.202,0.2064,0.209,0.212,0.2157,0.2176,0.2195,0.2205,0.2213,0.2227,0.2321,0.2341,0.2128,0.2128,0.2128,0,0,0.168,0.1707,0.1721,0.1761,0.179,0.1818,0.1837,0.1881,0.1921,0.1937,0.2011,0.2052,0.2084,0.2147,0.2178,0.2155,0.2278,0.222,0.2226,0.2236,0.2329,0.2349,0.2368,0.2132,0.2131,0.2131,0,0,0.1682,0.1713,0.1737,0.1766,0.1824,0.1838,0.1859,0.1907,0.1952,0.2011,0.2056,0.2128,0.2171,0.222,0.2244,0.232,0.2329,0.2338,0.2394,0.2486,0.2504,0.2521,0.2544,0.2562,0.2341,0.2341,0.2341,0,0.1689,0.172,0.1746,0.1781,0.1814,0.1852,0.1888,0.1922,0.1991,0.2041,0.2049,0.2188,0.2206,0.231,0.2347,0.2342,0.2382,0.2343,0.2499,0.2516,0.2532,0.2552,0.2571,0.2345,0.2344,0.2344,0.2344,0,0.1708,0.1748,0.1762,0.182,0.1851,0.1886,0.1938,0.199,0.2043,0.2092,0.2218,0.2266,0.2358,0.2376,0.2381,0.2515,0.2502,0.2502,0.2466,0.2557,0.2572,0.259,0.235,0.2349,0.2348,0.2347,0,0,0.1688,0.1762,0.1776,0.1809,0.1881,0.19,0.1975,0.2049,0.2124,0.2203,0.2307,0.24,0.2462,0.2496,0.2536,0.2608,0.2731,0.2612,0.2615,0.2629,0.2911,0.2725,0.2726,0.2781,0.2785,0.2788,0.2866,0,0.1704,0.1763,0.1805,0.1863,0.1889,0.1957,0.2021,0.2104,0.2182,0.2286,0.2379,0.2492,0.2499,0.2574,0.2653,0.2729,0.279,0.2708,0.2827,0.2828,0.2649,0.2746,0.2802,0.288,0.2884,0.2887,0.2889,0,0.1715,0.175,0.1813,0.189,0.1914,0.1963,0.2081,0.2148,0.2296,0.2379,0.2518,0.2594,0.2741,0.2721,0.2903,0.2864,0.2899,0.293,0.2934,0.2753,0.2678,0.2779,0.2923,0.292,0.2917,0.2915,0.2913,0,0.1668,0.1753,0.18,0.1829,0.1925,0.1987,0.2047,0.2188,0.2273,0.2461,0.2555,0.2729,0.2834,0.294,0.3019,0.2992,0.3182,0.314,0.2993,0.2978,0.309,0.3072,0.3256,0.3256,0.3256,0.3256,0.3255,0,0.1645,0.1677,0.179,0.1812,0.1889,0.1972,0.2083,0.2187,0.2349,0.246,0.2616,0.2731,0.2907,0.3025,0.3072,0.3095,0.3236,0.3019,0.3005,0.3109,0.3094,0.31,0.3081,0.3258,0.3258,0.3257,0.3257,0,0.1561,0.164,0.1696,0.182,0.1868,0.1924,0.2084,0.2152,0.2339,0.2491,0.2566,0.2776,0.2936,0.3059,0.3216,0.3138,0.3188,0.3153,0.3243,0.3229,0.2895,0.2879,0.298,0.2975,0.297,0.2966,0.2963,0,0.1492,0.1521,0.1689,0.1733,0.1791,0.1893,0.1957,0.2138,0.2214,0.2499,0.2548,0.2772,0.2895,0.2964,0.3097,0.3165,0.3131,0.3101,0.3002,0.2901,0.2878,0.2869,0.2859,0.2956,0.2954,0.2953,0.2952,0,0.1344,0.1449,0.151,0.1638,0.1717,0.1783,0.1892,0.1942,0.2155,0.2355,0.2506,0.2607,0.2757,0.2864,0.2938,0.2978,0.3096,0.3051,0.3059,0.2966,0.2872,0.2852,0.2848,0.2936,0.2938,0.294,0.2941,0,0.1238,0.1263,0.1395,0.15,0.1596,0.1631,0.1712,0.1809,0.1921,0.224,0.229,0.2537,0.2742,0.2768,0.2849,0.2871,0.2814,0.2699,0.2724,0.2743,0.263,0.2474,0.2423,0,0,0,0,0,0.1107,0.1133,0.1228,0.1337,0.144,0.1512,0.1641,0.1726,0.1952,0.2008,0.2151,0.2299,0.2435,0.2548,0.2524,0.2705,0.2795,0.2659,0.2665,0.2846,0.2865,0.2754,0,0,0,0,0,0,0.1017,0.1071,0.1171,0.1186,0.1243,0.132,0.1403,0.1556,0.1597,0.1858,0.1949,0.2158,0.2318,0.2452,0.249,0.2522,0.2473,0.2816,0.281,0.2836,0.2853,0.2868,0.276,0,0,0,0,0]},{"header":{"parameterUnit":"m.s-1","parameterCategory":2,"la1":30.2991,"la2":30.254,"lo1":-89.0895,"lo2":-89.0444,"dy":0.0017,"dx":0.0017,"nx":28,"ny":28,"refTime":"2025-06-14T03:00:00:Z","depth":"4","parameterNumber":3,"parameterNumberName":"V-component_of_CURRENTS"},"data":[0,0,0,0,0,0,0,0,0,0,0,0,0,0,0,0,0,0,0,0,0,0,0,0,0,0,0,0,0,0,0,0,0,0,0,0,0,0,0,0,0,0,0,0,0,0,0,0,0,0,0,0,0,0,0,0,0,0,0.0127,0.0127,0,0.0101,0.01,0.01,0.0059,0.0058,0.0057,0.0057,0.0003,0.0002,0.0002,0,0,0,0,0,0,0,0,0,0,0,0,0,0.0097,0.0098,0.0127,0.0127,0.0126,0.0101,0.01,0.01,0.0059,0.0058,0.0057,0.0056,0.0004,0.0003,0.0002,0,0,0,0,0,0,0,0,0,0,0,0,0,0.0094,0.0098,0.0127,0.0103,0.0101,0.0101,0.01,0.01,0.0059,0.0058,0.0057,0.0056,0.0004,0.0003,0.0002,0.0015,0,0,-0.0002,-0.0003,0,0,0,0,0,0,0,0,0.0094,0.0095,0.0107,0.0105,0.0102,0.0082,0.007,0.007,0.0059,0.0074,0.0057,0.0056,0.0028,0.0025,0.0022,0.0013,0.001,-0.0002,-0.0003,-0.0003,-0.0004,0,0,0,0,0,0,0,0.0094,0.0095,0.0116,0.0107,0.0104,0.0079,0.0077,0.007,0.0057,0.0073,0.007,0.0068,0.0027,0.0023,0.002,0.001,-0.0002,-0.0003,-0.0004,-0.0004,-0.0009,-0.0009,0,0,0,0,0,0,0.0102,0.0096,0.0117,0.0115,0.0096,0.008,0.0079,0.0089,0.0057,0.0052,0.0069,0.0067,0.0026,0.0022,0.0018,0.0029,-0.0003,-0.0004,-0.0005,-0.001,-0.0009,-0.0009,0,0,0,0,0,0,0.0102,0.0105,0.0118,0.0104,0.0104,0.0082,0.0094,0.0089,0.0084,0.0055,0.0048,0.0068,0.0025,0.002,0.0017,0.0027,-0.0005,-0.0006,-0.0011,-0.001,-0.0009,0.0053,0,0,0,0,0,0,0.0102,0.0105,0.0117,0.0106,0.0105,0.0127,0.0095,0.009,0.0085,0.0081,0.0052,0.0046,0.0024,0.0019,0.0016,0.0024,-0.0007,-0.0011,-0.001,-0.0009,0.005,0.0055,0.006,0,0,0,0,0,0.0101,0.013,0.0118,0.012,0.0122,0.0128,0.0126,0.0105,0.0086,0.0094,0.0072,0.0047,0.0023,0.0019,0.0015,0.0023,-0.0012,-0.0011,-0.0009,0.0047,0.0054,0.006,0,0,0,0,0,0,0.0127,0.0128,0.0115,0.0143,0.0137,0.0121,0.0129,0.0111,0.01,0.0094,0.006,0.0054,0.0052,0.0033,0.0029,0.0024,-0.0001,-0.0,0.0044,0.005,0.0055,0.0068,-0.0008,0,0,0,0,0,0.0137,0.0155,0.0147,0.0167,0.0168,0.0147,0.0146,0.0132,0.012,0.0114,0.0097,0.0074,0.0056,0.0049,0.0035,0.0039,-0.0004,0.0039,0.0045,0.0049,0.0057,0.0002,0.0003,-0.0004,-0.0004,-0.0004,0,0,0.0152,0.0154,0.0163,0.0173,0.0165,0.0181,0.0144,0.015,0.016,0.0111,0.0124,0.0095,0.0062,0.0063,0.006,0.0047,0.0027,0.0051,0.0055,0.0061,0.0004,0.0004,0.0005,-0.0004,-0.0004,-0.0004,0,0,0.0192,0.0193,0.0219,0.0221,0.0217,0.0209,0.0212,0.0204,0.0196,0.0202,0.0165,0.0144,0.0129,0.0104,0.0088,0.0114,0.0056,0.0107,0.0145,0.0092,0.0092,0.0092,0.0029,0.0022,0.011,0.011,0.011,0,0.0207,0.0242,0.0227,0.0252,0.0261,0.0225,0.0255,0.0246,0.0237,0.0236,0.0215,0.0176,0.0147,0.0133,0.014,0.0126,0.0082,0.0125,0.0099,0.0097,0.0096,0.0031,0.0023,0.0113,0.0113,0.0112,0.0112,0,0.0264,0.029,0.0308,0.0327,0.0335,0.0356,0.0342,0.0346,0.0327,0.0311,0.0296,0.0251,0.0226,0.0209,0.0183,0.0162,0.0129,0.0111,0.0083,0.01,0.0031,0.0021,0.0117,0.0116,0.0115,0.0115,0,0,0.0304,0.0342,0.0348,0.0372,0.0378,0.0395,0.041,0.0416,0.0427,0.0394,0.0397,0.0352,0.0315,0.0294,0.0249,0.0202,0.0147,0.0159,0.0154,0.0097,0.0018,0.0003,-0.001,0.0121,0.012,0.0119,-0.003,0,0.0352,0.042,0.0423,0.0483,0.0516,0.0496,0.0516,0.0511,0.0494,0.0489,0.0418,0.0408,0.035,0.0338,0.0279,0.0184,0.0126,0.0188,0.001,0.0004,-0.0011,-0.0019,0.0116,-0.0037,-0.004,-0.0041,-0.0042,0,0.0405,0.0447,0.0518,0.0566,0.0578,0.0608,0.0632,0.0647,0.0618,0.0604,0.0562,0.0505,0.0434,0.0383,0.0214,0.0255,0.0147,0.0063,0.0054,0.0015,-0.0028,-0.0057,-0.0061,-0.0059,-0.0058,-0.0057,-0.0055,0,0.0443,0.0512,0.0575,0.0593,0.0638,0.0667,0.0688,0.0683,0.0711,0.0679,0.0683,0.0577,0.053,0.0383,0.0203,0.0208,0.0004,-0.0013,-0.0135,-0.0139,-0.0108,-0.0106,-0.0134,-0.0133,-0.0133,-0.0133,-0.0132,0,0.0491,0.0542,0.0604,0.0639,0.072,0.0725,0.0794,0.0798,0.0809,0.0843,0.0749,0.0731,0.0529,0.0386,0.0218,0.0007,0.0007,-0.0132,-0.0175,-0.008,-0.0073,-0.0116,-0.0112,-0.0138,-0.0137,-0.0136,-0.0135,0,0.0522,0.0557,0.0638,0.071,0.0742,0.0799,0.0885,0.0931,0.0928,0.0965,0.0961,0.084,0.0652,0.0431,0.0178,0.0035,-0.0167,-0.0242,-0.0134,-0.0168,-0.028,-0.0271,-0.0389,-0.0391,-0.0392,-0.0393,-0.0394,0,0.0547,0.0596,0.07,0.0759,0.0801,0.089,0.0954,0.0993,0.1041,0.1027,0.1042,0.0884,0.0772,0.0401,0.016,-0.0175,-0.0217,-0.0331,-0.0296,-0.0274,-0.0305,-0.0294,-0.0283,-0.0397,-0.0397,-0.0397,-0.0398,0,0.0606,0.064,0.0702,0.0822,0.0911,0.1019,0.1107,0.1153,0.1185,0.1179,0.1112,0.0923,0.0701,0.0407,0.0141,-0.0096,-0.026,-0.0347,-0.0345,-0.0313,-0.0285,-0.0312,-0.03,-0.0403,-0.0402,-0.0402,-0.0401,0,0.0653,0.0697,0.0777,0.0878,0.0998,0.1113,0.1159,0.1206,0.1249,0.1223,0.1187,0.0955,0.081,0.0446,0.0201,-0.0037,-0.0091,-0.0163,-0.0172,-0.0169,-0.0061,0.0009,-0.0056,0,0,0,0,0,0.0706,0.0744,0.0833,0.0943,0.1063,0.1139,0.1247,0.1278,0.1297,0.1267,0.1235,0.1031,0.0668,0.0501,0.0264,0.0165,-0.014,-0.0124,-0.0228,-0.0431,-0.0425,-0.0336,0,0,0,0,0,0,0.0731,0.0814,0.0827,0.0978,0.1068,0.1212,0.1291,0.1311,0.1286,0.1261,0.1071,0.0966,0.0611,0.0808,0.0258,0.0183,0.0082,-0.0298,-0.0304,-0.0434,-0.0429,-0.0424,-0.0331,0,0,0,0,0]}]]